Overview Statistics Trail Chart Weather Telemetry Raw packets
 

This is the latest recevied weather packets stored in our database for station/object VK6WB. If no packets are shown the sender has not sent any weather packets the latest 10 day(s).

<< 32 33 34 35 36 37 38 >>
Time Temp. Humidity Pressure Rain* Wind** Luminosity Snow
1777088404 21.67° C 10% 1018.2 hPa 0 mm - 10 W/m² -
1777087804 21.11° C 10% 1018.3 hPa 0 mm - 10 W/m² -
1777087204 22.22° C 10% 1018.3 hPa 0 mm - 10 W/m² -
1777086604 22.22° C 10% 1018.4 hPa 0 mm - 10 W/m² -
1777086005 21.67° C 10% 1018.5 hPa 0 mm - 10 W/m² -
1777085404 21.67° C 10% 1018.6 hPa 0 mm - 10 W/m² -
1777084804 21.11° C 10% 1018.7 hPa 0 mm - 10 W/m² -
1777084204 21.11° C 10% 1018.6 hPa 0 mm - 10 W/m² -
1777083604 21.11° C 10% 1018.8 hPa 0 mm - 10 W/m² -
1777083004 20.56° C 10% 1018.8 hPa 0 mm - 10 W/m² -
1777082404 21.11° C 10% 1018.8 hPa 0 mm - 10 W/m² -
1777081804 20.56° C 10% 1018.7 hPa 7.11 mm - 10 W/m² -
1777081204 20° C 10% 1018.7 hPa 7.11 mm - 10 W/m² -
1777080604 19.44° C 10% 1018.7 hPa 7.11 mm - 10 W/m² -
1777080004 19.44° C 10% 1018.7 hPa 7.11 mm - 10 W/m² -
1777079404 19.44° C 10% 1018.6 hPa 7.11 mm - 10 W/m² -
1777078804 18.33° C 10% 1018.6 hPa 7.11 mm - 10 W/m² -
1777078204 18.33° C 53% 1018.6 hPa 0 mm - 10 W/m² -
1777077604 18.33° C 53% 1018.4 hPa 0 mm - 10 W/m² -
1777077004 18.33° C 53% 1018.2 hPa 0 mm - 10 W/m² -
1777076404 18.33° C 53% 1018.2 hPa 0 mm - 10 W/m² -
1777075804 18.33° C 53% 1018 hPa 0 mm - 10 W/m² -
1777075204 18.33° C 53% 1018 hPa 0 mm - 10 W/m² -
1777074604 18.33° C 53% 1017.9 hPa 0 mm - 10 W/m² -
1777074004 18.33° C 53% 1017.7 hPa 0 mm - 10 W/m² -

* Rain latest hour (hover to see other rain measurements)
** Current wind speed in m/s (hover to see current wind gust speed)